Time,TemperatureF,DewpointF,PressureIn,WindDirection,WindDirectionDegrees,WindSpeedMPH,WindSpeedGustMPH,Humidity,HourlyPrecipIn,Conditions,Clouds,dailyrainin,SoftwareType,DateUTC
2013-04-10 00:03:00,51.9,29.0,29.88,WSW,255,0.0,3.0,41,0.00,,---,0.02,VWS V14.01,2013-04-10 07:03:00,
2013-04-10 00:08:00,51.8,28.9,29.88,West,267,0.0,1.0,41,0.00,,---,0.00,VWS V14.01,2013-04-10 07:08:00,
2013-04-10 00:14:00,51.5,29.2,29.87,West,276,1.0,1.0,42,0.00,,---,0.00,VWS V14.01,2013-04-10 07:14:00,
2013-04-10 00:19:00,51.0,29.3,29.88,West,273,0.0,1.0,43,0.00,,---,0.00,VWS V14.01,2013-04-10 07:19:00,
2013-04-10 00:24:00,50.6,29.5,29.88,WSW,256,1.0,3.0,44,0.00,,---,0.00,VWS V14.01,2013-04-10 07:24:00,
2013-04-10 00:29:00,50.4,29.9,29.88,West,280,3.0,3.0,45,0.00,,---,0.00,VWS V14.01,2013-04-10 07:29:00,
2013-04-10 00:34:00,50.2,29.7,29.88,West,267,1.0,1.0,45,0.00,,---,0.00,VWS V14.01,2013-04-10 07:34:00,
2013-04-10 00:39:00,49.9,30.0,29.88,West,270,3.0,4.0,46,0.00,,---,0.00,VWS V14.01,2013-04-10 07:39:00,
2013-04-10 00:44:00,49.9,29.4,29.88,West,262,1.0,4.0,45,0.00,,---,0.00,VWS V14.01,2013-04-10 07:44:00,
2013-04-10 00:49:00,50.0,29.5,29.88,West,276,2.0,4.0,45,0.00,,---,0.00,VWS V14.01,2013-04-10 07:49:00,
2013-04-10 00:54:00,49.9,29.4,29.87,WSW,255,2.0,4.0,45,0.00,,---,0.00,VWS V14.01,2013-04-10 07:54:00,
2013-04-10 00:59:00,49.8,29.3,29.88,West,262,3.0,5.0,45,0.00,,---,0.00,VWS V14.01,2013-04-10 07:59:00,
2013-04-10 01:04:00,49.5,29.6,29.88,West,264,1.0,1.0,46,0.00,,---,0.00,VWS V14.01,2013-04-10 08:04:00,
2013-04-10 01:09:00,49.0,29.7,29.88,WNW,287,0.0,2.0,47,0.00,,---,0.00,VWS V14.01,2013-04-10 08:09:00,
2013-04-10 01:14:00,48.8,29.5,29.88,West,281,3.0,4.0,47,0.00,,---,0.00,VWS V14.01,2013-04-10 08:14:00,
2013-04-10 01:19:00,49.1,29.8,29.88,WSW,248,1.0,4.0,47,0.00,,---,0.00,VWS V14.01,2013-04-10 08:19:00,
2013-04-10 01:24:00,48.9,29.6,29.88,West,280,0.0,4.0,47,0.00,,---,0.00,VWS V14.01,2013-04-10 08:24:00,
2013-04-10 01:29:00,48.7,29.4,29.88,West,273,0.0,4.0,47,0.00,,---,0.00,VWS V14.01,2013-04-10 08:29:00,
2013-04-10 01:34:00,48.1,29.4,29.88,NW,310,0.0,1.0,48,0.00,,---,0.00,VWS V14.01,2013-04-10 08:34:00,
2013-04-10 01:39:00,47.8,30.1,29.88,North,7,0.0,1.0,50,0.00,,---,0.00,VWS V14.01,2013-04-10 08:39:00,
2013-04-10 01:44:00,47.5,29.8,29.88,North,8,0.0,1.0,50,0.00,,---,0.00,VWS V14.01,2013-04-10 08:44:00,
2013-04-10 01:50:00,47.3,29.6,29.88,North,7,0.0,1.0,50,0.00,,---,0.00,VWS V14.01,2013-04-10 08:50:00,
2013-04-10 01:55:00,47.0,30.3,29.88,North,8,0.0,1.0,52,0.00,,---,0.00,VWS V14.01,2013-04-10 08:55:00,
2013-04-10 02:00:00,46.5,30.3,29.88,North,8,0.0,1.0,53,0.00,,---,0.00,VWS V14.01,2013-04-10 09:00:00,
2013-04-10 02:05:00,46.0,30.3,29.88,North,7,0.0,0.0,54,0.00,,---,0.00,VWS V14.01,2013-04-10 09:05:00,
2013-04-10 02:10:00,45.8,30.1,29.88,North,7,0.0,0.0,54,0.00,,---,0.00,VWS V14.01,2013-04-10 09:10:00,
2013-04-10 02:15:00,46.4,30.2,29.88,North,8,0.0,0.0,53,0.00,,---,0.00,VWS V14.01,2013-04-10 09:15:00,
2013-04-10 02:20:00,46.6,29.9,29.88,North,7,0.0,0.0,52,0.00,,---,0.00,VWS V14.01,2013-04-10 09:20:00,
2013-04-10 02:25:00,46.8,30.1,29.88,North,7,0.0,0.0,52,0.00,,---,0.00,VWS V14.01,2013-04-10 09:25:00,
2013-04-10 02:30:00,46.2,30.0,29.88,North,8,0.0,0.0,53,0.00,,---,0.00,VWS V14.01,2013-04-10 09:30:00,
2013-04-10 02:35:00,45.6,29.9,29.88,North,7,0.0,0.0,54,0.00,,---,0.00,VWS V14.01,2013-04-10 09:35:00,
2013-04-10 02:40:00,45.3,29.6,29.87,North,10,0.0,0.0,54,0.00,,---,0.00,VWS V14.01,2013-04-10 09:40:00,
2013-04-10 02:45:00,45.1,29.5,29.87,North,11,0.0,0.0,54,0.00,,---,0.00,VWS V14.01,2013-04-10 09:45:00,
2013-04-10 02:50:00,45.2,29.6,29.87,North,11,0.0,0.0,54,0.00,,---,0.00,VWS V14.01,2013-04-10 09:50:00,
2013-04-10 02:55:00,45.5,29.8,29.87,North,11,0.0,0.0,54,0.00,,---,0.00,VWS V14.01,2013-04-10 09:55:00,
2013-04-10 03:01:00,45.7,30.5,29.87,North,11,0.0,0.0,55,0.00,,---,0.00,VWS V14.01,2013-04-10 10:01:00,
2013-04-10 03:06:00,45.5,30.3,29.87,North,10,0.0,0.0,55,0.00,,---,0.00,VWS V14.01,2013-04-10 10:06:00,
2013-04-10 03:11:00,45.1,30.4,29.87,North,11,0.0,0.0,56,0.00,,---,0.00,VWS V14.01,2013-04-10 10:11:00,
2013-04-10 03:16:00,44.9,30.6,29.87,North,11,0.0,0.0,57,0.00,,---,0.00,VWS V14.01,2013-04-10 10:16:00,
2013-04-10 03:21:00,44.6,30.8,29.87,North,11,0.0,0.0,58,0.00,,---,0.00,VWS V14.01,2013-04-10 10:21:00,
2013-04-10 03:26:00,44.3,30.5,29.87,North,11,0.0,0.0,58,0.00,,---,0.00,VWS V14.01,2013-04-10 10:26:00,
2013-04-10 03:31:00,44.0,31.0,29.87,North,11,0.0,0.0,60,0.00,,---,0.00,VWS V14.01,2013-04-10 10:31:00,
2013-04-10 03:36:00,43.5,31.4,29.87,North,11,0.0,0.0,62,0.00,,---,0.00,VWS V14.01,2013-04-10 10:36:00,
2013-04-10 03:41:00,43.5,31.4,29.88,North,11,0.0,0.0,62,0.00,,---,0.00,VWS V14.01,2013-04-10 10:41:00,
2013-04-10 03:47:00,43.5,31.4,29.88,North,11,0.0,0.0,62,0.00,,---,0.00,VWS V14.01,2013-04-10 10:47:00,
2013-04-10 03:52:00,43.9,30.1,29.88,North,11,0.0,0.0,58,0.00,,---,0.00,VWS V14.01,2013-04-10 10:52:00,
2013-04-10 03:57:00,44.1,31.1,29.88,North,356,0.0,0.0,60,0.00,,---,0.00,VWS V14.01,2013-04-10 10:57:00,
2013-04-10 04:02:00,43.7,31.1,29.88,North,355,0.0,0.0,61,0.00,,---,0.00,VWS V14.01,2013-04-10 11:02:00,
2013-04-10 04:07:00,43.5,31.0,29.88,North,355,0.0,0.0,61,0.00,,---,0.00,VWS V14.01,2013-04-10 11:07:00,
2013-04-10 04:12:00,43.4,30.9,29.89,North,355,0.0,0.0,61,0.00,,---,0.00,VWS V14.01,2013-04-10 11:12:00,
2013-04-10 04:17:00,43.4,30.9,29.89,North,355,0.0,0.0,61,0.00,,---,0.00,VWS V14.01,2013-04-10 11:17:00,
2013-04-10 04:22:00,43.2,30.7,29.89,North,355,0.0,0.0,61,0.00,,---,0.00,VWS V14.01,2013-04-10 11:22:00,
2013-04-10 04:27:00,43.1,30.6,29.89,NNW,343,0.0,0.0,61,0.00,,---,0.00,VWS V14.01,2013-04-10 11:27:00,
2013-04-10 04:32:00,42.9,30.4,29.89,NNW,336,0.0,0.0,61,0.00,,---,0.00,VWS V14.01,2013-04-10 11:32:00,
2013-04-10 04:37:00,42.9,30.4,29.89,NNW,336,0.0,0.0,61,0.00,,---,0.00,VWS V14.01,2013-04-10 11:37:00,
2013-04-10 04:42:00,42.9,30.4,29.90,North,5,0.0,0.0,61,0.00,,---,0.00,VWS V14.01,2013-04-10 11:42:00,
2013-04-10 04:48:00,43.0,30.9,29.90,NNE,27,0.0,1.0,62,0.00,,---,0.00,VWS V14.01,2013-04-10 11:48:00,
2013-04-10 04:53:00,42.8,31.1,29.90,NNE,21,0.0,2.0,63,0.00,,---,0.00,VWS V14.01,2013-04-10 11:53:00,
2013-04-10 04:58:00,42.7,31.0,29.90,NNE,22,0.0,2.0,63,0.00,,---,0.00,VWS V14.01,2013-04-10 11:58:00,
2013-04-10 05:03:00,42.6,30.9,29.91,NNE,22,0.0,2.0,63,0.00,,---,0.00,VWS V14.01,2013-04-10 12:03:00,
2013-04-10 05:08:00,42.4,30.7,29.91,ENE,66,1.0,3.0,63,0.00,,---,0.00,VWS V14.01,2013-04-10 12:08:00,
2013-04-10 05:13:00,42.2,30.5,29.91,ENE,64,1.0,3.0,63,0.00,,---,0.00,VWS V14.01,2013-04-10 12:13:00,
2013-04-10 05:18:00,42.0,30.7,29.91,NE,54,4.0,4.0,64,0.00,,---,0.00,VWS V14.01,2013-04-10 12:18:00,
2013-04-10 05:23:00,41.7,30.8,29.92,NE,56,3.0,4.0,65,0.00,,---,0.00,VWS V14.01,2013-04-10 12:23:00,
2013-04-10 05:28:00,41.3,30.4,29.92,NNE,18,0.0,4.0,65,0.00,,---,0.00,VWS V14.01,2013-04-10 12:28:00,
2013-04-10 05:33:00,41.3,30.4,29.92,NNE,23,0.0,4.0,65,0.00,,---,0.00,VWS V14.01,2013-04-10 12:33:00,
2013-04-10 05:38:00,41.6,30.7,29.92,North,355,0.0,3.0,65,0.00,,---,0.00,VWS V14.01,2013-04-10 12:38:00,
2013-04-10 05:43:00,41.6,30.3,29.92,NNE,12,1.0,3.0,64,0.00,,---,0.00,VWS V14.01,2013-04-10 12:43:00,
2013-04-10 05:48:00,41.8,30.5,29.92,NNE,23,2.0,3.0,64,0.00,,---,0.00,VWS V14.01,2013-04-10 12:48:00,
2013-04-10 05:53:00,41.9,30.6,29.92,NNE,23,2.0,3.0,64,0.00,,---,0.00,VWS V14.01,2013-04-10 12:53:00,
2013-04-10 05:58:00,41.8,30.5,29.92,NNE,22,1.0,3.0,64,0.00,,---,0.00,VWS V14.01,2013-04-10 12:58:00,
2013-04-10 06:03:00,41.7,30.0,29.93,NE,39,1.0,4.0,63,0.00,,---,0.00,VWS V14.01,2013-04-10 13:03:00,
2013-04-10 06:08:00,41.7,30.0,29.93,NE,39,1.0,2.0,63,0.00,,---,0.00,VWS V14.01,2013-04-10 13:08:00,
2013-04-10 06:13:00,41.8,30.1,29.93,NE,39,2.0,2.0,63,0.00,,---,0.00,VWS V14.01,2013-04-10 13:13:00,
2013-04-10 06:19:00,41.8,29.8,29.93,NE,48,1.0,3.0,62,0.00,,---,0.00,VWS V14.01,2013-04-10 13:19:00,
2013-04-10 06:24:00,41.8,30.1,29.93,NE,36,0.0,3.0,63,0.00,,---,0.00,VWS V14.01,2013-04-10 13:24:00,
2013-04-10 06:29:00,41.7,29.7,29.93,NE,34,0.0,3.0,62,0.00,,---,0.00,VWS V14.01,2013-04-10 13:29:00,
2013-04-10 06:34:00,41.7,30.0,29.93,NE,36,1.0,1.0,63,0.00,,---,0.00,VWS V14.01,2013-04-10 13:34:00,
2013-04-10 06:39:00,42.4,30.3,29.93,NNE,32,0.0,2.0,62,0.00,,---,0.00,VWS V14.01,2013-04-10 13:39:00,
2013-04-10 06:44:00,43.4,30.9,29.93,NNE,32,0.0,2.0,61,0.00,,---,0.00,VWS V14.01,2013-04-10 13:44:00,
2013-04-10 06:49:00,44.2,30.8,29.93,NNE,30,0.0,2.0,59,0.00,,---,0.00,VWS V14.01,2013-04-10 13:49:00,
2013-04-10 06:54:00,44.6,31.2,29.93,NNE,30,0.0,2.0,59,0.00,,---,0.00,VWS V14.01,2013-04-10 13:54:00,
2013-04-10 06:59:00,45.3,31.0,29.94,NNE,30,0.0,2.0,57,0.00,,---,0.00,VWS V14.01,2013-04-10 13:59:00,
2013-04-10 07:04:00,46.0,31.6,29.94,NNE,30,0.0,0.0,57,0.00,,---,0.00,VWS V14.01,2013-04-10 14:04:00,
2013-04-10 07:09:00,46.9,32.0,29.94,NNE,30,0.0,0.0,56,0.00,,---,0.00,VWS V14.01,2013-04-10 14:09:00,
2013-04-10 07:14:00,47.9,31.6,29.94,NNE,30,0.0,0.0,53,0.00,,---,0.00,VWS V14.01,2013-04-10 14:14:00,
2013-04-10 07:19:00,49.0,32.2,29.94,NNE,30,0.0,0.0,52,0.00,,---,0.00,VWS V14.01,2013-04-10 14:19:00,
2013-04-10 07:25:00,50.1,31.7,29.94,NNE,30,0.0,0.0,49,0.00,,---,0.00,VWS V14.01,2013-04-10 14:25:00,
2013-04-10 07:30:00,51.7,31.6,29.94,NNE,30,0.0,0.0,46,0.00,,---,0.00,VWS V14.01,2013-04-10 14:30:00,
2013-04-10 07:35:00,53.4,31.5,29.94,NNE,30,0.0,0.0,43,0.00,,---,0.00,VWS V14.01,2013-04-10 14:35:00,
2013-04-10 07:40:00,54.5,30.7,29.94,SSW,200,0.0,0.0,40,0.00,,---,0.00,VWS V14.01,2013-04-10 14:40:00,
2013-04-10 07:45:00,54.7,30.2,29.94,SSW,200,0.0,0.0,39,0.00,,---,0.00,VWS V14.01,2013-04-10 14:45:00,
2013-04-10 07:50:00,54.8,29.7,29.94,West,264,0.0,0.0,38,0.00,,---,0.00,VWS V14.01,2013-04-10 14:50:00,
2013-04-10 07:55:00,53.8,29.4,29.95,SW,217,0.0,2.0,39,0.00,,---,0.00,VWS V14.01,2013-04-10 14:55:00,
2013-04-10 08:00:00,53.8,28.2,29.95,SSW,210,1.0,3.0,37,0.00,,---,0.00,VWS V14.01,2013-04-10 15:00:00,
2013-04-10 08:05:00,54.2,29.2,29.95,WSW,247,2.0,2.0,38,0.00,,---,0.00,VWS V14.01,2013-04-10 15:05:00,
2013-04-10 08:10:00,54.3,29.2,29.95,SW,236,3.0,6.0,38,0.00,,---,0.00,VWS V14.01,2013-04-10 15:10:00,
2013-04-10 08:15:00,54.5,29.4,29.95,South,190,1.0,6.0,38,0.00,,---,0.00,VWS V14.01,2013-04-10 15:15:00,
2013-04-10 08:20:00,54.7,29.0,29.95,SW,233,2.0,6.0,37,0.00,,---,0.00,VWS V14.01,2013-04-10 15:20:00,
2013-04-10 08:25:00,55.0,28.6,29.95,SSW,194,0.0,6.0,36,0.00,,---,0.00,VWS V14.01,2013-04-10 15:25:00,
2013-04-10 08:31:00,55.4,28.9,29.95,WSW,258,0.0,6.0,36,0.00,,---,0.00,VWS V14.01,2013-04-10 15:31:00,
2013-04-10 08:36:00,55.9,29.4,29.95,SSW,201,3.0,3.0,36,0.00,,---,0.00,VWS V14.01,2013-04-10 15:36:00,
2013-04-10 08:41:00,55.9,28.0,29.95,WSW,243,0.0,4.0,34,0.00,,---,0.00,VWS V14.01,2013-04-10 15:41:00,
2013-04-10 08:46:00,56.0,27.3,29.96,South,186,1.0,4.0,33,0.00,,---,0.00,VWS V14.01,2013-04-10 15:46:00,
2013-04-10 08:51:00,56.4,27.7,29.96,West,273,0.0,4.0,33,0.00,,---,0.00,VWS V14.01,2013-04-10 15:51:00,
2013-04-10 08:56:00,57.1,29.0,29.96,WSW,239,2.0,5.0,34,0.00,,---,0.00,VWS V14.01,2013-04-10 15:56:00,
2013-04-10 09:02:00,57.5,29.4,29.96,West,270,1.0,5.0,34,0.00,,---,0.00,VWS V14.01,2013-04-10 16:02:00,
2013-04-10 09:07:00,57.3,28.5,29.96,WSW,257,1.0,4.0,33,0.00,,---,0.00,VWS V14.01,2013-04-10 16:07:00,
2013-04-10 09:12:00,57.9,29.0,29.96,SW,214,2.0,4.0,33,0.00,,---,0.00,VWS V14.01,2013-04-10 16:12:00,
2013-04-10 09:17:00,58.4,28.7,29.96,SW,231,1.0,4.0,32,0.00,,---,0.00,VWS V14.01,2013-04-10 16:17:00,
2013-04-10 09:22:00,58.2,28.5,29.96,SSE,159,2.0,6.0,32,0.00,,---,0.00,VWS V14.01,2013-04-10 16:22:00,
2013-04-10 09:27:00,58.5,28.0,29.96,SSW,195,0.0,6.0,31,0.00,,---,0.00,VWS V14.01,2013-04-10 16:27:00,
2013-04-10 09:32:00,58.8,28.3,29.96,WSW,239,3.0,6.0,31,0.00,,---,0.00,VWS V14.01,2013-04-10 16:32:00,
2013-04-10 09:37:00,58.7,27.4,29.97,SSW,193,0.0,4.0,30,0.00,,---,0.00,VWS V14.01,2013-04-10 16:37:00,
2013-04-10 09:42:00,59.9,27.6,29.97,North,6,0.0,4.0,29,0.00,,---,0.00,VWS V14.01,2013-04-10 16:42:00,
2013-04-10 09:47:00,60.3,27.9,29.97,WSW,243,2.0,5.0,29,0.00,,---,0.00,VWS V14.01,2013-04-10 16:47:00,
2013-04-10 09:52:00,59.7,27.4,29.97,South,186,2.0,6.0,29,0.00,,---,0.00,VWS V14.01,2013-04-10 16:52:00,
2013-04-10 09:57:00,60.2,27.0,29.97,SW,228,5.0,6.0,28,0.00,,---,0.00,VWS V14.01,2013-04-10 16:57:00,
2013-04-10 10:02:00,60.1,27.8,29.97,SSE,158,0.0,6.0,29,0.00,,---,0.00,VWS V14.01,2013-04-10 17:02:00,
2013-04-10 10:07:00,60.1,26.9,29.97,SSW,193,0.0,4.0,28,0.00,,---,0.00,VWS V14.01,2013-04-10 17:07:00,
2013-04-10 10:12:00,60.9,28.5,29.97,SE,136,0.0,4.0,29,0.00,,---,0.00,VWS V14.01,2013-04-10 17:12:00,
2013-04-10 10:18:00,60.9,28.5,29.97,SE,129,6.0,7.0,29,0.00,,---,0.00,VWS V14.01,2013-04-10 17:18:00,
2013-04-10 10:23:00,60.9,28.5,29.97,SSW,197,2.0,7.0,29,0.00,,---,0.00,VWS V14.01,2013-04-10 17:23:00,
2013-04-10 10:28:00,61.3,27.9,29.97,WSW,257,1.0,7.0,28,0.00,,---,0.00,VWS V14.01,2013-04-10 17:28:00,
2013-04-10 10:33:00,61.0,28.5,29.97,West,262,1.0,7.0,29,0.00,,---,0.00,VWS V14.01,2013-04-10 17:33:00,
2013-04-10 10:38:00,61.8,29.2,29.97,WSW,245,6.0,6.0,29,0.00,,---,0.00,VWS V14.01,2013-04-10 17:38:00,
2013-04-10 10:43:00,61.3,28.8,29.97,West,262,2.0,6.0,29,0.00,,---,0.00,VWS V14.01,2013-04-10 17:43:00,
2013-04-10 10:48:00,61.4,27.1,29.97,WSW,248,4.0,7.0,27,0.00,,---,0.00,VWS V14.01,2013-04-10 17:48:00,
2013-04-10 10:53:00,62.2,28.7,29.97,ENE,77,2.0,7.0,28,0.00,,---,0.00,VWS V14.01,2013-04-10 17:53:00,
2013-04-10 10:58:00,62.5,29.0,29.97,SSE,162,2.0,7.0,28,0.00,,---,0.00,VWS V14.01,2013-04-10 17:58:00,
2013-04-10 11:03:00,62.7,29.1,29.97,South,186,3.0,7.0,28,0.00,,---,0.00,VWS V14.01,2013-04-10 18:03:00,
2013-04-10 11:09:00,62.4,29.8,29.97,SW,215,4.0,7.0,29,0.00,,---,0.00,VWS V14.01,2013-04-10 18:09:00,
2013-04-10 11:14:00,62.3,29.7,29.97,SSE,158,1.0,7.0,29,0.00,,---,0.00,VWS V14.01,2013-04-10 18:14:00,
2013-04-10 11:19:00,62.6,28.2,29.97,WSW,253,3.0,9.0,27,0.00,,---,0.00,VWS V14.01,2013-04-10 18:19:00,
2013-04-10 11:24:00,62.0,27.7,29.96,SW,219,0.0,9.0,27,0.00,,---,0.00,VWS V14.01,2013-04-10 18:24:00,
2013-04-10 11:29:00,62.2,24.0,29.96,NNW,338,2.0,14.0,23,0.00,,---,0.00,VWS V14.01,2013-04-10 18:29:00,
2013-04-10 11:34:00,62.8,25.5,29.96,NNW,328,1.0,2.0,24,0.00,,---,0.00,VWS V14.01,2013-04-10 18:34:00,
2013-04-10 11:39:00,63.0,26.6,29.96,NNE,29,0.0,5.0,25,0.00,,---,0.00,VWS V14.01,2013-04-10 18:39:00,
2013-04-10 11:44:00,63.6,27.2,29.96,WNW,293,5.0,8.0,25,0.00,,---,0.00,VWS V14.01,2013-04-10 18:44:00,
2013-04-10 11:49:00,63.3,27.9,29.96,WSW,256,4.0,9.0,26,0.00,,---,0.00,VWS V14.01,2013-04-10 18:49:00,
2013-04-10 11:54:00,63.1,25.8,29.95,SW,215,3.0,9.0,24,0.00,,---,0.00,VWS V14.01,2013-04-10 18:54:00,
2013-04-10 11:59:00,63.2,26.8,29.95,WSW,257,3.0,10.0,25,0.00,,---,0.00,VWS V14.01,2013-04-10 18:59:00,
2013-04-10 12:04:00,63.0,25.7,29.95,WSW,246,3.0,7.0,24,0.00,,---,0.00,VWS V14.01,2013-04-10 19:04:00,
2013-04-10 12:09:00,63.6,26.2,29.95,West,259,2.0,7.0,24,0.00,,---,0.00,VWS V14.01,2013-04-10 19:09:00,
2013-04-10 12:14:00,64.2,25.7,29.94,SE,124,2.0,8.0,23,0.00,,---,0.00,VWS V14.01,2013-04-10 19:14:00,
2013-04-10 12:19:00,64.7,27.1,29.94,WSW,240,9.0,10.0,24,0.00,,---,0.00,VWS V14.01,2013-04-10 19:19:00,
2013-04-10 12:24:00,63.9,25.4,29.94,SSW,212,5.0,12.0,23,0.00,,---,0.00,VWS V14.01,2013-04-10 19:24:00,
2013-04-10 12:30:00,63.4,26.0,29.94,SW,236,4.0,12.0,24,0.00,,---,0.00,VWS V14.01,2013-04-10 19:30:00,
2013-04-10 12:35:00,63.5,25.1,29.94,South,187,2.0,4.0,23,0.00,,---,0.00,VWS V14.01,2013-04-10 19:35:00,
2013-04-10 12:40:00,64.1,25.6,29.94,SSW,208,3.0,7.0,23,0.00,,---,0.00,VWS V14.01,2013-04-10 19:40:00,
2013-04-10 12:45:00,64.3,25.7,29.94,SSE,160,5.0,10.0,23,0.00,,---,0.00,VWS V14.01,2013-04-10 19:45:00,
2013-04-10 12:50:00,65.1,25.3,29.93,SW,222,6.0,10.0,22,0.00,,---,0.00,VWS V14.01,2013-04-10 19:50:00,
2013-04-10 12:55:00,64.6,26.0,29.93,SW,219,4.0,10.0,23,0.00,,---,0.00,VWS V14.01,2013-04-10 19:55:00,
2013-04-10 13:00:00,63.9,25.4,29.93,SW,232,3.0,10.0,23,0.00,,---,0.00,VWS V14.01,2013-04-10 20:00:00,
2013-04-10 13:05:00,64.9,24.1,29.93,NW,325,0.0,2.0,21,0.00,,---,0.00,VWS V14.01,2013-04-10 20:05:00,
2013-04-10 13:10:00,65.7,25.8,29.93,WSW,246,7.0,7.0,22,0.00,,---,0.00,VWS V14.01,2013-04-10 20:10:00,
2013-04-10 13:15:00,65.1,23.1,29.93,SW,231,6.0,11.0,20,0.00,,---,0.00,VWS V14.01,2013-04-10 20:15:00,
2013-04-10 13:20:00,64.6,23.8,29.93,WSW,250,4.0,11.0,21,0.00,,---,0.00,VWS V14.01,2013-04-10 20:20:00,
2013-04-10 13:25:00,65.0,24.1,29.93,WSW,255,6.0,16.0,21,0.00,,---,0.00,VWS V14.01,2013-04-10 20:25:00,
2013-04-10 13:30:00,65.1,23.1,29.93,West,272,2.0,16.0,20,0.00,,---,0.00,VWS V14.01,2013-04-10 20:30:00,
2013-04-10 13:35:00,65.8,24.8,29.93,West,280,6.0,10.0,21,0.00,,---,0.00,VWS V14.01,2013-04-10 20:35:00,
2013-04-10 13:40:00,64.9,22.9,29.93,WNW,288,4.0,13.0,20,0.00,,---,0.00,VWS V14.01,2013-04-10 20:40:00,
2013-04-10 13:45:00,64.7,22.7,29.93,West,277,5.0,13.0,20,0.00,,---,0.00,VWS V14.01,2013-04-10 20:45:00,
2013-04-10 13:50:00,64.1,23.4,29.93,SSW,198,3.0,13.0,21,0.00,,---,0.00,VWS V14.01,2013-04-10 20:50:00,
2013-04-10 13:56:00,64.5,23.7,29.93,SW,234,4.0,13.0,21,0.00,,---,0.00,VWS V14.01,2013-04-10 20:56:00,
2013-04-10 14:01:00,64.6,22.6,29.92,West,266,8.0,13.0,20,0.00,,---,0.00,VWS V14.01,2013-04-10 21:01:00,
2013-04-10 14:06:00,65.1,23.1,29.92,SW,228,6.0,12.0,20,0.00,,---,0.00,VWS V14.01,2013-04-10 21:06:00,
2013-04-10 14:11:00,65.2,24.3,29.92,NE,46,1.0,12.0,21,0.00,,---,0.00,VWS V14.01,2013-04-10 21:11:00,
2013-04-10 14:16:00,65.4,23.3,29.92,West,263,8.0,12.0,20,0.00,,---,0.00,VWS V14.01,2013-04-10 21:16:00,
2013-04-10 14:21:00,65.8,23.6,29.92,WSW,240,3.0,12.0,20,0.00,,---,0.00,VWS V14.01,2013-04-10 21:21:00,
2013-04-10 14:26:00,65.4,23.3,29.92,SSW,205,6.0,15.0,20,0.00,,---,0.00,VWS V14.01,2013-04-10 21:26:00,
2013-04-10 14:31:00,65.0,24.1,29.91,WSW,248,9.0,15.0,21,0.00,,---,0.00,VWS V14.01,2013-04-10 21:31:00,
2013-04-10 14:36:00,64.9,22.9,29.91,SW,224,10.0,13.0,20,0.00,,---,0.00,VWS V14.01,2013-04-10 21:36:00,
2013-04-10 14:42:00,65.2,24.3,29.91,WSW,252,9.0,16.0,21,0.00,,---,0.00,VWS V14.01,2013-04-10 21:42:00,
2013-04-10 14:47:00,64.9,24.1,29.91,SW,215,3.0,16.0,21,0.00,,---,0.00,VWS V14.01,2013-04-10 21:47:00,
2013-04-10 14:52:00,65.2,24.3,29.91,WNW,293,8.0,16.0,21,0.00,,---,0.00,VWS V14.01,2013-04-10 21:52:00,
2013-04-10 14:57:00,64.8,22.8,29.91,West,280,7.0,16.0,20,0.00,,---,0.00,VWS V14.01,2013-04-10 21:57:00,
2013-04-10 15:02:00,65.1,24.2,29.91,West,267,3.0,16.0,21,0.00,,---,0.00,VWS V14.01,2013-04-10 22:02:00,
2013-04-10 15:07:00,65.1,25.3,29.91,West,263,5.0,11.0,22,0.00,,---,0.00,VWS V14.01,2013-04-10 22:07:00,
2013-04-10 15:12:00,65.4,24.5,29.91,WSW,242,12.0,12.0,21,0.00,,---,0.00,VWS V14.01,2013-04-10 22:12:00,
2013-04-10 15:17:00,64.7,23.9,29.90,North,1,0.0,19.0,21,0.00,,---,0.00,VWS V14.01,2013-04-10 22:17:00,
2013-04-10 15:22:00,65.6,23.5,29.90,WNW,290,7.0,19.0,20,0.00,,---,0.00,VWS V14.01,2013-04-10 22:22:00,
2013-04-10 15:27:00,66.0,22.6,29.90,WSW,255,2.0,19.0,19,0.00,,---,0.00,VWS V14.01,2013-04-10 22:27:00,
2013-04-10 15:32:00,66.4,22.9,29.90,NNE,23,2.0,19.0,19,0.00,,---,0.00,VWS V14.01,2013-04-10 22:32:00,
2013-04-10 15:38:00,66.5,23.0,29.90,SW,224,6.0,6.0,19,0.00,,---,0.00,VWS V14.01,2013-04-10 22:38:00,
2013-04-10 15:43:00,66.6,23.1,29.90,SW,221,1.0,9.0,19,0.00,,---,0.00,VWS V14.01,2013-04-10 22:43:00,
2013-04-10 15:48:00,67.7,24.0,29.90,West,260,8.0,9.0,19,0.00,,---,0.00,VWS V14.01,2013-04-10 22:48:00,
2013-04-10 15:53:00,66.8,23.2,29.90,NE,55,1.0,11.0,19,0.00,,---,0.00,VWS V14.01,2013-04-10 22:53:00,
2013-04-10 15:58:00,67.1,23.5,29.90,West,271,3.0,11.0,19,0.00,,---,0.00,VWS V14.01,2013-04-10 22:58:00,
2013-04-10 16:03:00,67.2,23.6,29.90,NW,314,3.0,11.0,19,0.00,,---,0.00,VWS V14.01,2013-04-10 23:03:00,
2013-04-10 16:08:00,66.4,22.9,29.90,NNE,16,2.0,8.0,19,0.00,,---,0.00,VWS V14.01,2013-04-10 23:08:00,
2013-04-10 16:13:00,66.9,22.0,29.90,West,270,3.0,9.0,18,0.00,,---,0.00,VWS V14.01,2013-04-10 23:13:00,
2013-04-10 16:18:00,66.4,22.9,29.90,West,269,4.0,9.0,19,0.00,,---,0.00,VWS V14.01,2013-04-10 23:18:00,
2013-04-10 16:23:00,66.4,22.9,29.90,NNE,30,2.0,9.0,19,0.00,,---,0.00,VWS V14.01,2013-04-10 23:23:00,
2013-04-10 16:28:00,66.6,21.8,29.90,WSW,253,3.0,9.0,18,0.00,,---,0.00,VWS V14.01,2013-04-10 23:28:00,
2013-04-10 16:33:00,66.4,21.6,29.90,West,281,5.0,9.0,18,0.00,,---,0.00,VWS V14.01,2013-04-10 23:33:00,
2013-04-10 16:38:00,66.8,22.0,29.90,NNW,345,2.0,3.0,18,0.00,,---,0.00,VWS V14.01,2013-04-10 23:38:00,
2013-04-10 16:43:00,66.9,23.3,29.90,NW,308,0.0,8.0,19,0.00,,---,0.00,VWS V14.01,2013-04-10 23:43:00,
2013-04-10 16:48:00,67.3,22.4,29.90,North,9,9.0,9.0,18,0.00,,---,0.00,VWS V14.01,2013-04-10 23:48:00,
2013-04-10 16:53:00,66.0,22.6,29.89,NE,34,3.0,9.0,19,0.00,,---,0.00,VWS V14.01,2013-04-10 23:53:00,
2013-04-10 16:59:00,66.0,22.6,29.90,NNW,332,3.0,11.0,19,0.00,,---,0.00,VWS V14.01,2013-04-10 23:59:00,
2013-04-10 17:04:00,66.6,24.3,29.90,NW,313,3.0,11.0,20,0.00,,---,0.00,VWS V14.01,2013-04-11 00:04:00,
2013-04-10 17:09:00,66.6,23.1,29.90,WSW,249,0.0,2.0,19,0.00,,---,0.00,VWS V14.01,2013-04-11 00:09:00,
2013-04-10 17:14:00,66.4,24.1,29.90,WNW,290,2.0,5.0,20,0.00,,---,0.00,VWS V14.01,2013-04-11 00:14:00,
2013-04-10 17:19:00,66.3,24.1,29.90,WNW,288,5.0,9.0,20,0.00,,---,0.00,VWS V14.01,2013-04-11 00:19:00,
2013-04-10 17:24:00,66.1,23.9,29.89,WNW,282,0.0,9.0,20,0.00,,---,0.00,VWS V14.01,2013-04-11 00:24:00,
2013-04-10 17:29:00,66.3,24.1,29.90,SW,233,1.0,9.0,20,0.00,,---,0.00,VWS V14.01,2013-04-11 00:29:00,
2013-04-10 17:34:00,66.4,25.3,29.90,NE,48,5.0,5.0,21,0.00,,---,0.00,VWS V14.01,2013-04-11 00:34:00,
2013-04-10 17:39:00,66.0,26.1,29.90,NNE,25,2.0,7.0,22,0.00,,---,0.00,VWS V14.01,2013-04-11 00:39:00,
2013-04-10 17:44:00,65.7,25.8,29.90,West,270,3.0,8.0,22,0.00,,---,0.00,VWS V14.01,2013-04-11 00:44:00,
2013-04-10 17:49:00,65.4,26.7,29.90,NW,313,3.0,8.0,23,0.00,,---,0.00,VWS V14.01,2013-04-11 00:49:00,
2013-04-10 17:54:00,65.1,27.4,29.90,North,356,3.0,8.0,24,0.00,,---,0.00,VWS V14.01,2013-04-11 00:54:00,
2013-04-10 17:59:00,64.8,27.2,29.91,NNE,30,4.0,8.0,24,0.00,,---,0.00,VWS V14.01,2013-04-11 00:59:00,
2013-04-10 18:04:00,64.3,27.8,29.91,WSW,257,2.0,4.0,25,0.00,,---,0.00,VWS V14.01,2013-04-11 01:04:00,
2013-04-10 18:09:00,64.2,27.7,29.91,WNW,302,4.0,13.0,25,0.00,,---,0.00,VWS V14.01,2013-04-11 01:09:00,
2013-04-10 18:14:00,63.8,28.3,29.91,WNW,299,3.0,13.0,26,0.00,,---,0.00,VWS V14.01,2013-04-11 01:14:00,
2013-04-10 18:20:00,63.7,28.2,29.91,NW,316,5.0,13.0,26,0.00,,---,0.00,VWS V14.01,2013-04-11 01:20:00,
2013-04-10 18:25:00,63.3,27.9,29.91,NW,311,5.0,13.0,26,0.00,,---,0.00,VWS V14.01,2013-04-11 01:25:00,
2013-04-10 18:30:00,63.1,28.6,29.92,WNW,302,2.0,13.0,27,0.00,,---,0.00,VWS V14.01,2013-04-11 01:30:00,
2013-04-10 18:35:00,62.9,28.4,29.92,WNW,287,3.0,7.0,27,0.00,,---,0.00,VWS V14.01,2013-04-11 01:35:00,
2013-04-10 18:40:00,62.5,29.0,29.92,WSW,252,2.0,7.0,28,0.00,,---,0.00,VWS V14.01,2013-04-11 01:40:00,
2013-04-10 18:45:00,61.8,29.2,29.92,NNE,13,2.0,7.0,29,0.00,,---,0.00,VWS V14.01,2013-04-11 01:45:00,
2013-04-10 18:50:00,61.3,29.6,29.92,NNE,30,3.0,7.0,30,0.00,,---,0.00,VWS V14.01,2013-04-11 01:50:00,
2013-04-10 18:55:00,60.8,29.2,29.92,WNW,293,1.0,7.0,30,0.00,,---,0.00,VWS V14.01,2013-04-11 01:55:00,
2013-04-10 19:00:00,60.5,28.9,29.92,North,5,1.0,7.0,30,0.00,,---,0.00,VWS V14.01,2013-04-11 02:00:00,
2013-04-10 19:05:00,60.1,29.4,29.92,North,7,0.0,3.0,31,0.00,,---,0.00,VWS V14.01,2013-04-11 02:05:00,
2013-04-10 19:10:00,59.9,29.2,29.92,NNW,332,1.0,4.0,31,0.00,,---,0.00,VWS V14.01,2013-04-11 02:10:00,
2013-04-10 19:15:00,59.7,29.0,29.92,NNE,32,4.0,4.0,31,0.00,,---,0.00,VWS V14.01,2013-04-11 02:15:00,
2013-04-10 19:20:00,59.5,29.6,29.93,West,273,2.0,4.0,32,0.00,,---,0.00,VWS V14.01,2013-04-11 02:20:00,
2013-04-10 19:26:00,59.3,29.5,29.92,ENE,61,0.0,4.0,32,0.00,,---,0.00,VWS V14.01,2013-04-11 02:26:00,
2013-04-10 19:31:00,58.9,29.1,29.92,NW,311,0.0,4.0,32,0.00,,---,0.00,VWS V14.01,2013-04-11 02:31:00,
2013-04-10 19:36:00,58.6,29.6,29.93,NNW,328,1.0,2.0,33,0.00,,---,0.00,VWS V14.01,2013-04-11 02:36:00,
2013-04-10 19:41:00,58.2,29.3,29.93,NNE,29,1.0,2.0,33,0.00,,---,0.00,VWS V14.01,2013-04-11 02:41:00,
2013-04-10 19:46:00,58.1,29.2,29.93,NNW,335,0.0,2.0,33,0.00,,---,0.00,VWS V14.01,2013-04-11 02:46:00,
2013-04-10 19:51:00,57.8,29.6,29.93,West,264,1.0,4.0,34,0.00,,---,0.00,VWS V14.01,2013-04-11 02:51:00,
2013-04-10 19:56:00,57.8,29.6,29.93,WNW,299,1.0,4.0,34,0.00,,---,0.00,VWS V14.01,2013-04-11 02:56:00,
2013-04-10 20:01:00,57.6,29.5,29.93,NW,313,0.0,4.0,34,0.00,,---,0.00,VWS V14.01,2013-04-11 03:01:00,
2013-04-10 20:06:00,57.5,30.1,29.94,West,281,1.0,2.0,35,0.00,,---,0.00,VWS V14.01,2013-04-11 03:06:00,
2013-04-10 20:11:00,57.4,30.0,29.94,West,278,1.0,3.0,35,0.00,,---,0.00,VWS V14.01,2013-04-11 03:11:00,
2013-04-10 20:16:00,57.1,29.7,29.94,West,281,1.0,3.0,35,0.00,,---,0.00,VWS V14.01,2013-04-11 03:16:00,
2013-04-10 20:21:00,56.9,29.5,29.94,WNW,291,0.0,3.0,35,0.00,,---,0.00,VWS V14.01,2013-04-11 03:21:00,
2013-04-10 20:26:00,56.7,30.1,29.95,NNW,344,2.0,3.0,36,0.00,,---,0.00,VWS V14.01,2013-04-11 03:26:00,
2013-04-10 20:32:00,56.6,30.0,29.95,WNW,302,0.0,3.0,36,0.00,,---,0.00,VWS V14.01,2013-04-11 03:32:00,
2013-04-10 20:37:00,56.5,29.9,29.95,NNW,336,0.0,2.0,36,0.00,,---,0.00,VWS V14.01,2013-04-11 03:37:00,
2013-04-10 20:42:00,56.3,29.7,29.95,NW,304,0.0,2.0,36,0.00,,---,0.00,VWS V14.01,2013-04-11 03:42:00,
2013-04-10 20:47:00,55.9,30.0,29.96,WNW,282,0.0,2.0,37,0.00,,---,0.00,VWS V14.01,2013-04-11 03:47:00,
2013-04-10 20:52:00,55.8,29.9,29.96,NW,314,0.0,2.0,37,0.00,,---,0.00,VWS V14.01,2013-04-11 03:52:00,
2013-04-10 20:57:00,55.5,29.7,29.96,NW,314,0.0,2.0,37,0.00,,---,0.00,VWS V14.01,2013-04-11 03:57:00,
2013-04-10 21:00:00,55.3,30.1,29.96,NW,314,0.0,2.0,38,0.00,,---,0.00,VWS V14.01,2013-04-11 04:00:00,
2013-04-10 21:03:00,55.1,30.0,29.96,NW,314,0.0,2.0,38,0.00,,---,0.00,VWS V14.01,2013-04-11 04:03:00,
2013-04-10 21:08:00,54.9,30.4,29.97,NW,314,0.0,0.0,39,0.00,,---,0.00,VWS V14.01,2013-04-11 04:08:00,
2013-04-10 21:13:00,54.7,30.9,29.97,NE,50,0.0,0.0,40,0.00,,---,0.00,VWS V14.01,2013-04-11 04:13:00,
2013-04-10 21:18:00,54.3,30.5,29.97,ENE,75,0.0,2.0,40,0.00,,---,0.00,VWS V14.01,2013-04-11 04:18:00,
2013-04-10 21:23:00,54.0,30.9,29.97,East,98,0.0,2.0,41,0.00,,---,0.00,VWS V14.01,2013-04-11 04:23:00,
2013-04-10 21:28:00,53.8,30.7,29.97,ENE,70,0.0,2.0,41,0.00,,---,0.00,VWS V14.01,2013-04-11 04:28:00,
2013-04-10 21:33:00,53.5,31.0,29.97,ENE,71,0.0,2.0,42,0.00,,---,0.00,VWS V14.01,2013-04-11 04:33:00,
2013-04-10 21:38:00,53.2,31.3,29.97,ENE,58,0.0,1.0,43,0.00,,---,0.00,VWS V14.01,2013-04-11 04:38:00,
2013-04-10 21:43:00,53.0,31.1,29.97,ENE,58,0.0,1.0,43,0.00,,---,0.00,VWS V14.01,2013-04-11 04:43:00,
2013-04-10 21:48:00,52.8,30.9,29.97,NE,47,0.0,1.0,43,0.00,,---,0.00,VWS V14.01,2013-04-11 04:48:00,
2013-04-10 21:53:00,52.7,31.4,29.98,NE,40,1.0,2.0,44,0.00,,---,0.00,VWS V14.01,2013-04-11 04:53:00,
2013-04-10 21:59:00,52.4,31.7,29.97,NNE,23,3.0,4.0,45,0.00,,---,0.00,VWS V14.01,2013-04-11 04:59:00,
2013-04-10 22:04:00,52.3,31.6,29.97,NE,51,3.0,4.0,45,0.00,,---,0.00,VWS V14.01,2013-04-11 05:04:00,
2013-04-10 22:09:00,52.5,31.2,29.97,NE,37,2.0,3.0,44,0.00,,---,0.00,VWS V14.01,2013-04-11 05:09:00,
2013-04-10 22:14:00,52.6,31.3,29.97,NE,40,0.0,3.0,44,0.00,,---,0.00,VWS V14.01,2013-04-11 05:14:00,
2013-04-10 22:19:00,52.1,31.4,29.97,NE,40,0.0,3.0,45,0.00,,---,0.00,VWS V14.01,2013-04-11 05:19:00,
2013-04-10 22:24:00,52.0,31.3,29.97,NNE,27,1.0,3.0,45,0.00,,---,0.00,VWS V14.01,2013-04-11 05:24:00,
2013-04-10 22:29:00,52.0,31.3,29.97,NE,34,1.0,3.0,45,0.00,,---,0.00,VWS V14.01,2013-04-11 05:29:00,
2013-04-10 22:34:00,52.0,31.3,29.97,NNE,29,1.0,1.0,45,0.00,,---,0.00,VWS V14.01,2013-04-11 05:34:00,
2013-04-10 22:39:00,51.9,31.8,29.97,NE,36,2.0,2.0,46,0.00,,---,0.00,VWS V14.01,2013-04-11 05:39:00,
2013-04-10 22:44:00,51.7,31.6,29.97,NE,51,2.0,3.0,46,0.00,,---,0.00,VWS V14.01,2013-04-11 05:44:00,
2013-04-10 22:49:00,51.6,31.5,29.96,NNE,33,3.0,4.0,46,0.00,,---,0.00,VWS V14.01,2013-04-11 05:49:00,
2013-04-10 22:54:00,51.3,31.2,29.97,NE,40,1.0,7.0,46,0.00,,---,0.00,VWS V14.01,2013-04-11 05:54:00,
2013-04-10 22:59:00,50.8,31.3,29.97,North,6,1.0,7.0,47,0.00,,---,0.00,VWS V14.01,2013-04-11 05:59:00,
2013-04-10 23:04:00,50.8,31.8,29.98,North,5,2.0,2.0,48,0.00,,---,0.00,VWS V14.01,2013-04-11 06:04:00,
2013-04-10 23:09:00,51.0,32.0,29.97,North,11,2.0,3.0,48,0.00,,---,0.00,VWS V14.01,2013-04-11 06:09:00,
2013-04-10 23:14:00,51.0,32.0,29.97,NNE,18,5.0,5.0,48,0.00,,---,0.00,VWS V14.01,2013-04-11 06:14:00,
2013-04-10 23:19:00,51.1,31.6,29.97,NNE,14,1.0,5.0,47,0.00,,---,0.00,VWS V14.01,2013-04-11 06:19:00,
2013-04-10 23:24:00,50.8,31.8,29.98,North,352,0.0,5.0,48,0.00,,---,0.00,VWS V14.01,2013-04-11 06:24:00,
2013-04-10 23:30:00,50.5,31.6,29.98,North,4,0.0,5.0,48,0.00,,---,0.00,VWS V14.01,2013-04-11 06:30:00,
2013-04-10 23:35:00,50.2,31.3,29.98,North,1,1.0,2.0,48,0.00,,---,0.00,VWS V14.01,2013-04-11 06:35:00,
2013-04-10 23:40:00,50.3,31.4,29.98,NNE,29,2.0,3.0,48,0.00,,---,0.00,VWS V14.01,2013-04-11 06:40:00,
2013-04-10 23:45:00,50.4,31.5,29.98,North,356,1.0,3.0,48,0.00,,---,0.00,VWS V14.01,2013-04-11 06:45:00,
2013-04-10 23:50:00,50.4,31.0,29.98,North,5,1.0,3.0,47,0.00,,---,0.00,VWS V14.01,2013-04-11 06:50:00,
2013-04-10 23:55:00,50.7,31.2,29.98,NNE,16,1.0,3.0,47,0.00,,---,0.00,VWS V14.01,2013-04-11 06:55:00,